Location: Potomac
(46.8816°N, 113.5795°W)
Time: 03:52:37
(UTC+00:00)

UKube-1 - Pass Details

Date: 02 July 2022
Orbit: 608 x 615 km, 98.4° (Epoch: 13 August)

Event Time Altitude Azimuth Distance (km) Brightness Sun altitude
Rises 06:11:47 0° 8° (N) 2,897 ? -17.4°
Reaches altitude 10° 06:14:03 10° 2° (N) 1,986 ? -17.5°
Maximum altitude 06:18:09 44° 290° (WNW) 849 ? -17.8°
Enters shadow 06:21:25 15° 222° (SW) 1,664 ? -18.0°
